Regional Weather Roundup
Issued by NWS Wakefield, VA

Home | Current Version | Previous Version | Text Only | Print | Product List | Glossary Off
Versions: 1 2 3 4 5 6 7 8 9 10 11 12 13 14 15 16 17 18 19 20 21 22 23 24 25 26 27 28 29 30 31 32 33 34 35 36 37 38 39 40 41 42 43 44 45 46 47 48 49 50

000
ASUS41 KAKQ 241410
RWRAKQ

REGIONAL WEATHER ROUNDUP
NATIONAL WEATHER SERVICE WAKEFIELD VA
1000 AM EDT THU JUL 24 2014

Note: "fair" indicates few or no clouds below 12,000 feet with no
significant weather and/or obstructions to visibility. * = Denotes
station may not report precipitation (e.g., rain,snow,etc.),
thunder or fog.

VAZ042-051-052>054-056-241500-
NORTHERN VIRGINIA

CITY           SKY/WX    TMP DP  RH WIND       PRES   REMARKS
WASH NATIONAL  CLOUDY    76  62  62 NE9       29.93R
DULLES         CLOUDY    71  63  75 N12       29.94R
FORT BELVOIR   CLOUDY    74  66  77 N3        29.93R
QUANTICO       CLOUDY    75  70  84 N7        29.92R
FREDERICKSBRG* NOT AVBL
STAFFORD*      NOT AVBL
WARRENTON      NOT AVBL
CULPEPER*      NOT AVBL
MANASSAS*      NOT AVBL
LEESBURG*      NOT AVBL
WINCHESTER     NOT AVBL
$$

VAZ048-049-060>072-079>083-241500-
CENTRAL AND SOUTH CENTRAL VIRGINIA...AND NORTH CENTRAL NORTH CAROLINA

CITY           SKY/WX    TMP DP  RH WIND       PRES   REMARKS
RICHMOND       RAIN      75  71  87 CALM      29.91S FOG
CHESTERFIELD*  CLOUDY    73  63  68 CALM      29.92F
HANOVER        LGT RAIN  73  71  93 CALM      29.93R FOG
TAPPAHANNOCK*  NOT AVBL
CHARLOTTSVILLE CLOUDY    74  70  87 SE3       29.94R FOG
ORANGE*        NOT AVBL
LOUISA*        NOT AVBL
FARMVILLE*     NOT AVBL
SOUTH HILL*    NOT AVBL
ROANOKE RAPIDS NOT AVBL
RALEIGH        PTSUNNY   78  70  76 N5        29.93S
$$

VAZ088>098-241500-
SOUTHEAST VIRGINIA

CITY           SKY/WX    TMP DP  RH WIND       PRES   REMARKS
NORFOLK        CLOUDY    77  71  82 NW9G20    29.88R
VIRGINIA BEACH CLOUDY    78  72  81 N15       29.87R
NORFOLK NAVAL  TSTM      75  71  87 N15       29.91R FOG
WEST POINT*    NOT AVBL
NEWPORT NEWS   RAIN      78  73  84 NW6       29.90R
LANGLEY AFB    DRIZZLE   74  74 100 N9        29.88F FOG
FORT EUSTIS    DRIZZLE   75  75 100 NW7       29.88S
WILLIAMSBURG*  NOT AVBL
FRANKLIN*      NOT AVBL
WAKEFIELD      LGT RAIN  73  70  90 NW3       29.90F FOG
$$

VAZ020-022-025-037-045-241500-
WESTERN AND SOUTHWEST VIRGINIA

CITY           SKY/WX    TMP DP  RH WIND       PRES   REMARKS
STAUNTON*      NOT AVBL
HOT SPRINGS VA   N/A     64  60  86 W7        30.08S
LYNCHBURG      CLOUDY    73  69  87 CALM      29.96F
DANVILLE       CLOUDY    75  69  81 CALM      29.94S
MARTINSVILLE   LGT RAIN  75  71  87 CALM      29.98S
ROANOKE        PTSUNNY   73  66  78 CALM      29.98S
BLACKSBURG     NOT AVBL
DUBLIN*        NOT AVBL
MARION*        NOT AVBL
HILLSVILLE*    NOT AVBL
RICHLANDS*     NOT AVBL
WISE*          NOT AVBL
ABINGDON*      NOT AVBL
$$

MDZ021>025-VAZ099-100-241500-
SOUTHERN MARYLAND AND THE DELMARVA PENINSULA

CITY           SKY/WX    TMP DP  RH WIND       PRES   REMARKS
PATUXENT RIVER LGT RAIN  73  68  84 NE6       29.89S
BAY BRIDGE APT   N/A     73  64  73 N8        29.91R
LEONARDTOWN    CLOUDY    72  66  83 CALM      29.92R
DOVER          CLOUDY    73  69  85 N13       29.87R
GEORGETOWN     CLOUDY    74  69  85 NE8       29.89R
EASTON         CLOUDY    75  73  94 N7        29.93R
CAMBRIDGE      CLOUDY    73  68  83 N5        29.89S
SALISBURY      NOT AVBL
OCEAN CITY     CLOUDY    73  68  84 N7        29.88R
WALLOPS ISLAND LGT RAIN  74  72  93 CALM      29.88R FOG
ACCOMACK*      NOT AVBL
$$

NCZ012>017-030>032-241500-
EASTERN NORTH CAROLINA

CITY           SKY/WX    TMP DP  RH WIND       PRES   REMARKS
ELIZABETH CITY PTSUNNY   81  75  82 W10G18    29.88S
AHOSKIE*       PTSUNNY   77  70  77 N8G17     29.91S
EDENTON*       NOT AVBL
CURRITUCK*     PTSUNNY   83  73  70 W10       29.89S
KILL DEVIL HLS NOT AVBL
MANTEO         NOT AVBL
CAPE HATTERAS  SUNNY     84  76  76 W12G18    29.91S
GOLDSBORO      MOSUNNY   84  78  83 W13       29.89S HX  95
WASHINGTON     NOT AVBL
GREENVILLE     CLOUDY    82  75  78 NW6       29.93R
NEW BERN       SUNNY     87  75  67 W8        29.92S HX  96
WILMINGTON     SUNNY     86  76  71 W13       29.93S HX  96
$$

VAZ048-241500-
ELSEWHERE

CITY           SKY/WX    TMP DP  RH WIND       PRES   REMARKS
HARRISBURG PA  PTSUNNY   73  59  61 N8        29.93R
BALTIMORE      CLOUDY    72  63  73 N8        29.91R
ANNAPOLIS      CLOUDY    74  66  76 N9        29.91R
ANDREWS AFB    CLOUDY    73  68  83 VRB6      29.92R
WILMINGTON DE  CLOUDY    73  63  70 N10       29.90R
PHILADELPHIA   PTSUNNY   74  59  59 N10       29.89R
WILDWOOD NJ*   PTSUNNY   73  66  78 N10       29.88R
ATLANTIC CITY  PTSUNNY   75  66  73 N8        29.86S
GREENSBORO     CLOUDY    75  71  87 E3        29.94S
ROCKY MOUNT    CLOUDY    81  73  76 NW7       29.91S
FAYETTEVILLE   MOSUNNY   85  74  69 SW12      29.91S
CHARLOTTE      PTSUNNY   78  70  76 CALM      29.96R
$$

VAZ100-241500-
MARINE

STATION/POSITION TIME  TEMP    WIND        PRES    WAVE   SWELL
                       AIR SEA DIR/SP/G            HT/PER HT/PER
                 (UTC) (F)     (DEG/KT/KT) (MB)    (FT/S) (FT/S)
44066 TX TWR #4  1400   73 74  350/ 12/ 12 1009.8R   3/ 8   2/ 8
CAPE MAY NJ      1400   74 77  350/  7/ 13 1011.0S
LEWES DE         1400   72 72  360/  9/ 11 1011.4R
15NM E FENWICK I 1400   74 76              1011.0R   2/ 6
OCEAN-CITY-INLET 1400   73 69   20/ 10/ 14 1011.1R
WACHAPREAGUE VA  1400   73 82  250/  1/  2 1011.9R
THOMAS POINT MD  1400   73 79  360/ 13/ 14 1013.2R
GOOSES REEF MD   1400   75      60/ 10/ 14 1012.7S
COVE POINT MD    1400   74      50/ 10/ 13 1012.3R
SOLOMONS ISLAND  1400      81                N/A
BISHOPS HEAD MD  1400   73 80   10/  8/ 11 1011.9R
PINEY POINT MD   1400           70/  5/  6   N/A
POTOMAC MD       1400   75      20/ 10/ 12 1011.5S
CAMBRIDGE MD     1400   73 80   20/  7/  8 1012.1R
LEWISETTA VA     1400   75 81   30/  5/  7 1012.2R
RAPPAHANNOCK LGT 1400          350/ 11/ 12 1012.5R
STINGRAY PT      1400   77     320/ 10/ 12 1012.6F
YORK RVR RNG VA  1400   75     350/ 12/ 14 1011.5F
YORKTOWN VA      1400   75 81  340/  8/  9 1011.8F
JAMESTOWN VA     1400   72     320/  6/ 10   N/A
DOMINION TERM VA 1400   74      20/  5/  9 1012.1F
KIPTOPEKE VA     1400      82  320/  9/ 12   N/A
CHES BAY BRIDGE  1400   72 79  320/ 23/ 31 1011.5R
CAPE HENRY VA    1400   76     330/ 10/ 12 1010.5R
WILLOUBY STN VA  1400           30/  9/ 11 1011.1F
S CRANEY ISL VA  1400          330/ 15/ 18 1011.9F
CAPE HENRY BUOY  1400      77                N/A     2/ 6
1ST LANDING BUOY 1400   78     350/ 12/ 16 1011.2R
CAPE CHARLES BUO 1400      74                N/A     2/ 6
OFFSHORE WE BUOY 1400      78                N/A     3/ 6
64NM E OF VA BCH 1400   78 78  270/ 12/ 14 1010.9R   4/ 6   3/ 6
DUCK PIER NC     1400   80 66  250/ 14/ 18 1011.1S
44056 DUCK FRF   1400                        N/A     1/ 7
OREGON INLET NC  1400   81 83  240/ 13/ 15 1012.1R
HATTERAS NC      1400   83 81  230/ 11/ 16 1013.3S
DIAMOND SHLS NC  1400          VRB 17/ 21  1012.6R   4/ 5   2/10
CAPE LOOKOUT NC  1300   82     250/ 14/ 18 1013.4R
$$


USA.gov is the U.S. government's official web portal to all federal, state and local government web resources and services.